YAOGAN 23 (40305 NORAD) Tracking and Keplerian Element Data

This shows tracking and keplerian element data for the satellite.

Feedback or suggestion? Click here.




ElementValue
Catalog40305
NameYAOGAN 23
Epoch Orbit24597
Epoch Day114.17362067
Epoch Year2019
RAAN52.1869
Inclination97.4882
Eccentricity0.0002337
Argument of Perigee103.2615
Mean Anonmoly7.8948
Mean Motion15.17949602
Decay Rate4.67E-06
L11 40305U 14071A 19114.17362067 .00000467 00000-0 26329-4 0 9996
L22 40305 97.4882 52.1869 0002337 103.2615 7.8948 15.17949602245973

Live tracking and technical data element details for YAOGAN 23 (NORAD 40305). YAOGAN 23 can be tracked NOW for your location showing map with azimuth and elevation plus other details from your city location.

Track the satellite on the map from your city or location and see movement details for azimuth, elevation, latitude, longitude, range, height, and movement on the map or in text.







IsCatalogInMostPopularTable: catalog: 40305, numindb: 201
Update: records affected: 1



GetName: 40305 YAOGAN 23

Hit Count: updated at: Wed, 24 Apr 2019 17:47:37 GMT